TimeCST,TemperatureF,Dew PointF,Humidity,Sea Level PressureIn,VisibilityMPH,Wind Direction,Wind SpeedMPH,Gust SpeedMPH,PrecipitationIn,Events,Conditions,WindDirDegrees,DateUTC
12:53 AM,42.8,32.0,66,30.14,10.0,SE,6.9,-,N/A,,Clear,140,2011-12-01 06:53:00
1:53 AM,42.8,33.8,70,30.13,10.0,SSE,9.2,-,N/A,,Clear,150,2011-12-01 07:53:00
2:53 AM,43.0,33.1,68,30.13,10.0,SSE,9.2,-,N/A,,Clear,150,2011-12-01 08:53:00
3:53 AM,42.1,33.1,70,30.14,10.0,SSE,8.1,-,N/A,,Clear,160,2011-12-01 09:53:00
4:53 AM,41.0,34.0,76,30.15,10.0,SSE,6.9,-,N/A,,Clear,160,2011-12-01 10:53:00
5:53 AM,39.9,34.0,79,30.15,10.0,SSE,8.1,-,N/A,,Clear,150,2011-12-01 11:53:00
6:53 AM,41.0,35.1,79,30.17,10.0,SE,9.2,-,N/A,,Clear,140,2011-12-01 12:53:00
7:53 AM,44.1,36.0,73,30.19,10.0,SSE,9.2,-,N/A,,Clear,150,2011-12-01 13:53:00
8:53 AM,48.9,39.9,71,30.22,10.0,SE,10.4,-,N/A,,Clear,140,2011-12-01 14:53:00
9:53 AM,53.6,42.8,67,30.24,10.0,SSE,10.4,-,N/A,,Clear,150,2011-12-01 15:53:00
10:53 AM,57.9,45.0,62,30.23,10.0,SSE,9.2,-,N/A,,Clear,150,2011-12-01 16:53:00
11:53 AM,62.1,46.9,58,30.21,10.0,SSE,10.4,18.4,N/A,,Clear,160,2011-12-01 17:53:00
12:53 PM,64.9,48.9,56,30.19,10.0,SSE,8.1,-,N/A,,Clear,150,2011-12-01 18:53:00
1:53 PM,66.9,50.0,54,30.17,10.0,SE,9.2,-,N/A,,Clear,130,2011-12-01 19:53:00
2:53 PM,66.2,50.0,56,30.18,10.0,SE,6.9,-,N/A,,Scattered Clouds,130,2011-12-01 20:53:00
3:53 PM,66.9,50.0,54,30.17,10.0,ESE,9.2,-,N/A,,Clear,110,2011-12-01 21:53:00
4:53 PM,64.9,48.9,56,30.19,10.0,ESE,8.1,-,N/A,,Partly Cloudy,110,2011-12-01 22:53:00
5:53 PM,62.1,48.9,62,30.21,10.0,East,4.6,-,N/A,,Scattered Clouds,90,2011-12-01 23:53:00
6:53 PM,62.1,48.0,60,30.22,10.0,East,8.1,-,N/A,,Overcast,90,2011-12-02 00:53:00
7:53 PM,61.0,48.0,62,30.26,10.0,ESE,10.4,-,N/A,,Overcast,110,2011-12-02 01:53:00
8:53 PM,61.0,48.0,62,30.27,10.0,ESE,10.4,-,N/A,,Overcast,120,2011-12-02 02:53:00
9:53 PM,60.1,48.9,67,30.27,10.0,SE,12.7,-,N/A,,Overcast,140,2011-12-02 03:53:00
10:53 PM,59.0,50.0,72,30.28,10.0,SSE,11.5,-,N/A,,Overcast,150,2011-12-02 04:53:00
11:53 PM,57.9,50.0,75,30.28,10.0,SE,6.9,-,N/A,,Overcast,140,2011-12-02 05:53:00